Overview Statistics Trail Chart Weather Telemetry Raw packets
 

This is the latest recevied weather packets stored in our database for station/object K4WCH. If no packets are shown the sender has not sent any weather packets the latest 10 day(s).

<< 3 4 5 6 7 8 9 >>
Time Temp. Humidity Pressure Rain* Wind** Luminosity Snow
1788636283 34.44° C 55% 1012.7 hPa 0 mm - 531 W/m² -
1788635978 35° C 55% 1012.8 hPa 0 mm - 896 W/m² -
1788635678 33.89° C 58% 1012.6 hPa 0 mm - 921 W/m² -
1788635377 33.33° C 60% 1012.7 hPa 0 mm - 318 W/m² -
1788635075 33.33° C 62% 1012.8 hPa 0 mm - 320 W/m² -
1788634774 33.33° C 59% 1012.8 hPa 0 mm - 189 W/m² -
1788634469 34.44° C 58% 1013 hPa 0 mm - 278 W/m² -
1788634168 33.89° C 56% 1012.9 hPa 0 mm - 907 W/m² -
1788633863 33.89° C 56% 1012.9 hPa 0 mm - 912 W/m² -
1788633561 33.33° C 59% 1012.9 hPa 0 mm - 817 W/m² -
1788633256 33.89° C 58% 1012.7 hPa 0 mm - 544 W/m² -
1788632951 33.89° C 59% 1013 hPa 0 mm - 1026 W/m² -
1788632650 33.33° C 57% 1012.9 hPa 0 mm - 947 W/m² -
1788632347 33.89° C 59% 1012.8 hPa 0 mm - 971 W/m² -
1788632047 33.89° C 61% 1013 hPa 0 mm - 973 W/m² -
1788631745 33.33° C 61% 1013.1 hPa 0 mm - 1010 W/m² -
1788631449 32.78° C 65% 1013.1 hPa 0 mm - 1008 W/m² -
1788631135 33.89° C 62% 1013.1 hPa 0 mm - 189 W/m² -
1788630835 32.78° C 66% 1013.3 hPa 0 mm - 1064 W/m² -
1788630530 32.78° C 66% 1013.3 hPa 0 mm - 1073 W/m² -
1788630226 32.22° C 66% 1013.6 hPa 0 mm - 971 W/m² -
1788629922 32.22° C 66% 1013.5 hPa 0 mm - 306 W/m² -
1788629617 32.78° C 67% 1013.6 hPa 0 mm - 590 W/m² -
1788629312 32.78° C 67% 1013.7 hPa 0 mm - 1150 W/m² -
1788629010 32.22° C 67% 1013.8 hPa 0 mm - 1074 W/m² -

* Rain latest hour (hover to see other rain measurements)
** Current wind speed in m/s (hover to see current wind gust speed)